SCP
0 0 0 0 0 -0 -0 -0 -0 -0 -0 -0 -0 -0 -0 -0 -0 -0 0 -0 0 -0 0 0 0 0 0 0 0 -0 0 0 0 0 -0 -0 -0 -0 -0 0 0 -0 -0 -0 0
0 0 0 0 0 -0 -0 -0 -0 -0 0 -0 -0 -0 -0 -0 0 0 -0 -0 -0 -0 0 0 -0 0 0 -0 0 0 0 0 -0 0 0 -0 -0 -0 -0 -0 -0 0 0 0 0
0 0 0 0 0 -0 -0 -0 -0 0 0 -0 -0 0 0 0 0 0 0 -0 0 0 0 0 0 0 -0 -0 0 0 0 -0 0 -0 -0 -0 0 -0 0 0 -0 0 0 0 0
0 0 -0 -0 -0 -0 -0 -0 -0 -0 0 0 0 0 0 0 0 0 0 0 0 0 0 0 0 0 0 -0 0 0 -0 -0 0 0 0 -0 -0 0 0 -0 0 0 0 0 0
0 0 -0 -0 -0 -0 -0 -0 -0 -0 0 0 0 0 0 0 0 0 0 0 0 0 0 0 0 0 0 0 0 -0 0 -0 0 -0 0 -0 -0 0 0 -0 0 0 0 0 0
0 0 -0 -0 -0 -0 -0 -0 -0 0 0 0 0 0 0 0 0 0 0 0 0 0 0 0 0 0 -0 -0 -0 0 0 -0 0 0 0 0 0 0 0 0 0 0 0 0 0
0 0 -0 -0 -0 -0 -0 -0 -0 0 0 0 -0 0 0 0 0 0 0 0 0 0 0 0 0 0 0 -0 -0 -0 0 -0 0 0 0 0 0 0 0 0 0 -0 0 0 0
0 0 -0 -0 -0 -0 -0 -0 -0 -0 -0 -0 -0 0 0 0 0 0 0 0 0 0 0 -0 0 0 -0 -0 0 -0 0 0 0 0 0 0 0 0 -0 0 -0 -0 -0 0 0
0 0 -0 -0 -0 -0 -0 -0 -0 0 -0 -0 -0 0 0 0 0 0 0 0 0 0 0 -0 0 0 -0 -0 -0 -0 0 0 0 0 0 0 0 0 0 0 0 0 -0 0 0
0 -0 -0 -0 -0 -0 -0 -0 -0 0 -0 -0 0 0 0 0 0 0 0 0 0 0 0 0 0 -0 -0 -0 -0 0 0 0 0 0 0 0 0 0 0 0 0 0 0 0 0
0 0 -0 -0 -0 -0 -0 0 0 0 -0 -0 -0 0 0 0 0 0 0 0 0 0 0 0 -0 -0 -0 0 0 0 0 0 0 -0 0 0 0 0 -0 0 0 0 0 0 0
0 0 -0 -0 -0 -0 0 0 0 -0 0 0 0 -0 0 0 0 0 0 0 0 0 0 0 0 0 0 -0 -0 -0 0 0 0 0 0 0 0 -0 -0 -0 0 0 0 0 0
0 0 -0 -0 -0 0 0 0 -0 -0 0 0 -0 -0 0 0 0 0 0 0 0 0 0 0 0 0 -0 -0 -0 -0 -0 0 0 -0 0 0 0 0 -0 -0 0 0 0 0 0
0 0 0 -0 0 0 0 0 0 0 0 0 0 0 0 0 0 0 0 0 0 0 0 0 0 0 -0 -0 0 -0 0 -0 -0 0 0 0 0 0 0 -0 0 0 0 0 0
0 0 0 0 0 0 0 0 0 0 0 0 0 0 0 0 0 0 0 0 0 0 0 0 0 0 0 0 0 -0 0 0 0 0 0 0 0 0 0 -0 0 0 0 0 0
0 0 0 -0 0 0 0 0 0 0 0 0 0 0 0 0 0 0 0 0 0 0 0 0 0 -0 0 0 0 0 0 0 0 0 0 0 0 0 0 0 0 0 0 0 0
0 0 0 0 0 0 0 0 0 0 0 0 0 0 0 0 0 0 0 0 0 0 0 0 0 -0 -0 0 0 0 0 -0 0 0 0 0 0 0 0 0 0 0 0 0 0
0 0 0 0 0 0 0 0 0 -0 0 0 0 0 0 0 0 0 0 0 0 0 0 0 0 0 0 0 0 0 0 0 0 0 0 0 0 0 0 0 0 0 0 0 0
0 -0 0 0 0 0 0 0 0 -0 0 0 0 0 0 0 0 0 0 0 0 0 0 0 0 0 0 0 0 0 0 0 0 0 0 0 0 0 0 0 0 0 0 0 0
0 0 0 0 0 0 0 0 0 0 0 0 0 0 0 0 0 0 0 0 0 0 0 -0 0 0 0 0 0 0 0 0 0 0 0 0 0 0 0 0 0 0 0 0 0
0 0 0 0 0 0 -0 0 0 0 0 0 0 0 0 0 0 0 0 0 0 0 0 0 0 0 0 0 0 0 0 0 0 0 0 0 0 0 0 0 0 0 0 0 0
0 0 0 0 0 0 -0 0 0 0 0 0 0 0 0 0 0 0 0 0 0 0 0 0 0 0 0 0 0 0 0 0 0 0 0 0 0 0 0 0 0 0 0 0 0
0 0 0 0 0 0 0 0 0 0 0 0 0 0 0 0 0 0 0 0 0 0 0 0 0 0 0 0 0 0 0 0 0 0 0 0 0 0 0 0 0 0 0 0 0
0 0 0 0 0 0 0 0 0 0 0 0 0 0 0 0 0 0 0 0 0 0 0 0 0 0 0 0 0 0 0 0 0 0 0 0 0 0 0 0 0 0 0 0 0
0 0 0 0 0 0 0 0 0 0 0 0 0 0 0 0 0 0 0 0 0 0 0 0 0 0 0 0 0 0 0 0 0 0 0 0 0 0 0 0 0 0 0 0 0
0 0 0 0 0 0 0 0 0 0 0 0 0 0 0 0 0 0 0 0 0 0 0 0 0 0 0 0 0 0 0 -0 0 0 0 0 0 0 0 0 0 0 0 0 0
0 0 0 0 0 0 0 0 0 0 0 0 0 0 0 0 0 -0 0 0 -0 0 0 0 0 0 0 0 0 0 0 0 0 0 0 0 0 0 0 0 0 0 0 0 0
Wind_Speed_500mb
29 33 38 42 44 46 50 50 51 52 49 46 43 38 34 27 22 18 16 9 5 2 10 12 17 15 7 14 19 17 7 9 8 19 15 30 10 29 35 42 39 20 15 10 11
29 32 36 41 44 45 49 51 51 51 47 45 41 35 30 25 22 22 12 7 6 6 9 19 20 5 11 10 8 10 8 9 4 22 38 30 39 31 22 29 29 49 46 45 38
27 31 36 41 45 49 51 52 52 49 46 46 35 30 24 20 22 5 17 10 11 9 14 12 5 17 8 16 11 9 4 12 26 70 95 86 68 43 52 20 21 28 51 53 40
27 30 34 42 46 50 52 52 52 47 46 41 29 27 19 14 3 8 6 12 8 16 20 11 1 3 5 5 1 6 18 28 33 68 70 79 82 62 76 43 39 27 28 37 40
28 30 34 42 48 50 53 51 48 45 44 31 25 21 14 9 12 16 12 14 21 26 17 6 9 7 4 12 26 3 6 39 55 67 64 84 74 53 60 60 63 53 54 53 60
29 33 38 42 48 51 53 50 43 43 36 22 20 16 10 7 9 19 8 21 33 21 7 6 14 29 17 7 4 18 11 41 17 46 29 52 31 52 32 57 64 63 54 49 54
31 37 41 45 48 51 52 44 42 38 25 19 16 15 14 15 6 16 12 27 25 9 5 15 25 21 21 16 19 13 13 14 19 12 21 34 17 19 30 61 66 66 54 45 43
33 38 42 46 49 53 47 43 42 31 19 17 15 13 11 3 12 12 13 26 23 13 17 22 27 31 12 17 17 12 10 10 8 3 9 15 4 15 19 47 52 64 60 53 35
33 36 40 43 46 52 43 41 30 19 17 17 9 8 9 5 14 6 17 23 13 18 15 19 25 18 12 7 12 12 6 17 4 17 6 8 7 16 29 34 36 59 58 52 38
33 36 39 41 44 45 41 34 15 8 13 12 12 10 7 4 17 23 17 23 20 27 22 18 10 1 6 10 9 10 6 6 14 11 20 21 7 23 9 28 25 44 41 42 31
32 36 38 39 42 34 41 27 19 5 30 24 26 37 46 15 11 29 30 32 36 28 11 18 4 16 21 15 16 14 6 2 22 35 16 3 4 14 24 5 9 18 20 38 19
30 36 38 37 39 25 30 20 28 28 30 49 38 45 43 25 14 24 32 17 15 10 2 9 15 25 15 17 18 24 11 10 18 17 16 10 14 18 21 9 9 13 24 32 21
28 33 38 35 27 20 15 17 25 25 13 39 25 40 36 19 19 25 31 38 10 7 10 12 22 9 11 26 21 12 17 19 22 33 28 33 9 9 9 18 2 16 15 19 14
28 31 35 38 13 37 4 16 25 17 5 14 10 16 28 19 12 36 31 30 8 13 6 13 32 24 26 21 9 8 8 36 43 15 12 16 5 7 9 6 4 17 17 6 8
29 31 31 34 39 31 24 33 26 5 9 3 9 7 27 25 7 18 40 33 12 15 8 17 23 23 14 12 6 11 2 11 35 19 15 8 10 3 4 8 6 5 7 5 21
29 32 34 31 34 22 34 33 10 7 9 6 15 11 11 14 11 7 33 42 33 14 11 28 34 11 10 5 4 1 8 16 9 8 10 10 8 6 8 10 9 20 10 24 23
31 33 35 35 25 27 24 16 6 5 11 4 9 10 10 11 10 10 9 14 12 5 3 13 7 6 13 8 15 16 13 7 10 11 6 8 15 5 5 14 21 20 33 23 22
33 38 34 35 15 12 20 5 3 12 15 26 13 11 13 9 9 4 10 11 6 8 3 4 14 8 4 11 10 4 14 10 4 9 8 15 7 6 3 30 44 42 44 57 54
32 39 39 17 13 9 5 4 9 9 16 19 5 10 8 10 7 12 17 13 15 15 10 4 11 5 11 7 14 1 3 10 14 9 10 5 4 4 13 16 20 52 57 53 45
30 38 31 14 26 14 5 9 9 7 16 11 11 2 12 10 9 6 12 13 9 21 19 12 5 5 2 12 13 11 3 11 8 8 7 8 5 11 21 20 34 42 49 52 44
23 19 4 23 30 19 5 12 13 26 27 10 5 5 5 8 16 6 7 6 8 3 11 5 7 12 10 7 6 10 7 12 11 9 10 8 3 9 20 31 32 38 51 44 41
9 6 13 36 9 5 5 8 13 23 55 15 6 7 5 11 8 5 3 2 3 2 7 5 9 8 8 12 7 11 8 10 10 3 7 8 6 16 30 45 52 46 48 45 40
8 13 25 30 5 5 10 11 25 19 13 8 8 2 7 7 1 8 7 13 9 9 7 2 6 7 14 13 14 13 7 11 11 7 2 10 9 16 41 41 44 56 46 41 36
7 5 13 21 30 7 1 12 8 25 15 15 12 12 8 11 4 7 6 12 12 10 11 14 6 13 11 12 8 12 18 12 13 9 6 4 27 12 19 30 38 47 45 39 34
9 9 9 6 11 13 9 8 10 11 8 11 7 8 3 7 2 8 8 6 11 8 8 10 6 6 6 19 19 20 24 21 15 14 10 19 19 14 20 30 41 46 42 38 34
5 7 21 21 22 10 14 14 18 14 9 12 9 16 7 7 6 13 14 5 7 10 7 7 1 5 10 16 26 20 33 35 32 26 23 26 13 17 37 46 38 36 37 37 33
5 19 10 16 11 3 4 14 13 4 14 22 14 6 12 13 27 39 20 18 19 11 5 7 7 6 4 18 15 13 4 17 12 10 29 13 15 27 17 28 36 36 36 34 30
Wind_Direction_500mb
331 334 333 337 339 338 335 336 334 333 330 328 328 324 318 324 311 290 249 214 340 35 150 145 144 147 273 264 236 242 39 296 288 74 101 117 74 50 74 86 62 73 65 82 192
326 327 329 333 335 335 336 335 333 331 329 327 326 323 319 329 308 274 188 182 165 264 179 159 165 205 307 274 235 135 122 252 226 118 90 127 109 107 98 93 84 81 81 87 90
319 323 327 329 333 336 335 333 333 330 327 327 325 319 322 326 318 336 226 249 233 240 171 164 216 291 246 234 220 177 209 126 90 96 90 85 77 101 101 74 76 100 96 94 96
316 323 327 326 333 334 334 330 330 328 326 325 323 320 324 314 282 343 285 213 214 188 191 208 51 349 265 288 224 317 230 146 141 105 99 93 97 84 92 104 103 103 91 94 87
317 324 326 328 332 332 331 328 327 327 326 320 322 325 326 295 288 310 293 203 173 192 204 239 31 358 346 295 320 218 187 125 139 108 104 93 90 95 97 115 118 116 111 104 99
317 324 328 331 330 330 329 327 325 326 324 312 319 319 299 288 308 315 216 184 184 188 228 283 350 326 298 277 126 323 28 135 108 82 100 96 91 105 98 128 121 118 113 107 105
319 325 329 331 331 332 330 328 324 323 317 307 317 313 271 253 338 334 217 178 188 183 326 333 339 332 327 335 324 299 97 76 22 90 133 93 56 84 121 119 118 116 117 110 102
318 324 329 332 334 332 332 328 323 320 309 304 313 296 255 8 280 283 209 183 193 242 290 333 335 314 296 311 318 347 84 100 259 265 175 40 166 111 166 124 108 118 120 115 111
315 322 326 331 335 333 331 327 326 328 314 304 296 298 259 232 229 221 213 190 223 270 291 318 303 290 315 64 355 7 238 113 163 3 110 83 198 218 175 125 124 125 124 125 127
314 319 323 331 337 338 338 326 330 356 348 303 246 296 252 243 250 230 214 226 272 295 290 272 277 4 24 73 234 249 5 282 127 4 64 81 134 247 35 130 144 116 141 137 143
312 316 321 331 339 345 348 20 10 285 313 279 255 278 281 285 233 213 227 233 249 275 233 255 79 232 237 203 230 249 193 271 134 150 109 81 163 296 356 348 135 120 161 145 152
308 314 319 329 338 350 356 46 18 337 298 294 267 263 261 268 291 237 211 218 232 226 332 355 260 245 214 244 247 270 166 117 78 102 82 136 35 341 340 330 62 24 188 154 149
304 312 318 326 334 337 355 23 332 322 286 291 245 239 236 235 233 232 221 230 231 244 243 191 249 321 225 274 269 234 127 187 132 88 78 110 34 332 335 328 132 30 177 148 145
298 309 318 327 332 340 17 307 331 346 347 274 213 233 217 219 266 226 222 219 195 240 226 243 273 259 272 266 173 104 173 128 142 120 182 219 118 257 272 286 21 54 134 128 58
291 302 310 321 319 339 332 332 342 336 344 198 165 191 181 179 290 197 219 221 197 237 98 252 291 293 229 223 128 190 161 107 175 200 116 137 104 272 26 291 277 158 176 77 102
283 295 301 307 309 332 329 336 332 45 263 236 157 160 125 209 254 311 196 220 227 238 222 255 262 237 175 166 167 232 34 40 47 79 53 295 138 182 195 199 141 194 164 152 162
279 285 294 293 297 333 325 330 51 173 300 51 200 153 172 189 235 205 205 164 191 172 300 319 261 207 135 73 356 62 59 358 13 34 153 325 50 279 25 150 150 161 168 169 120
280 283 282 272 302 327 335 27 161 297 292 317 166 155 177 205 244 250 175 212 192 166 316 247 328 179 177 151 174 20 131 146 188 161 165 24 48 346 49 133 142 160 110 114 109
287 286 283 254 249 253 339 52 214 234 354 316 2 137 234 230 195 177 200 204 218 165 188 349 283 86 108 124 122 272 77 174 105 53 80 95 12 37 111 129 145 110 108 108 100
303 302 278 231 187 196 85 240 257 290 323 335 48 195 193 240 159 185 188 217 215 191 166 200 5 22 189 48 28 89 192 44 11 111 112 121 125 156 176 147 102 113 113 112 110
308 308 162 177 170 176 184 242 284 292 321 341 314 304 276 260 194 208 207 326 147 208 93 73 91 311 39 18 161 12 31 60 108 116 140 138 72 188 137 118 118 120 129 125 114
291 297 171 163 149 179 197 224 298 299 305 266 259 261 234 289 181 147 77 3 66 118 85 332 129 69 40 336 92 98 117 110 109 310 69 107 43 107 119 129 129 130 122 120 116
265 271 193 219 178 241 276 285 284 284 275 318 305 223 271 261 152 130 111 10 73 77 135 47 2 69 346 354 6 52 14 102 110 88 81 116 150 130 120 121 126 128 124 116 108
274 307 246 217 245 203 88 269 259 297 269 255 263 302 343 347 2 124 111 33 42 72 103 100 87 135 169 214 127 75 58 52 99 90 111 64 133 148 122 120 132 125 119 113 105
228 255 346 289 267 234 173 292 312 319 292 280 298 219 22 324 11 123 95 116 25 31 64 93 82 68 17 110 101 108 89 76 83 149 118 169 133 164 146 134 130 124 120 111 108
248 358 341 296 282 229 179 218 230 259 255 312 320 312 302 210 187 230 137 133 161 9 60 23 164 63 56 98 95 92 97 90 96 99 91 119 89 132 124 125 122 120 117 115 114
224 285 284 278 297 286 239 222 231 205 297 238 283 317 321 283 228 204 167 153 147 127 94 79 105 78 131 121 86 44 357 97 103 100 135 153 162 147 121 121 127 129 124 119 115
Wind_Speed_850mb
29 33 38 42 44 46 50 50 51 52 49 46 43 38 34 27 22 18 16 9 5 2 10 12 17 15 7 14 19 17 7 9 8 19 15 30 10 29 35 42 39 20 15 10 11
29 32 36 41 44 45 49 51 51 51 47 45 41 35 30 25 22 22 12 7 6 6 9 19 20 5 11 10 8 10 8 9 4 22 38 30 39 31 22 29 29 49 46 45 38
27 31 36 41 45 49 51 52 52 49 46 46 35 30 24 20 22 5 17 10 11 9 14 12 5 17 8 16 11 9 4 12 26 70 95 86 68 43 52 20 21 28 51 53 40
27 30 34 42 46 50 52 52 52 47 46 41 29 27 19 14 3 8 6 12 8 16 20 11 1 3 5 5 1 6 18 28 33 68 70 79 82 62 76 43 39 27 28 37 40
28 30 34 42 48 50 53 51 48 45 44 31 25 21 14 9 12 16 12 14 21 26 17 6 9 7 4 12 26 3 6 39 55 67 64 84 74 53 60 60 63 53 54 53 60
29 33 38 42 48 51 53 50 43 43 36 22 20 16 10 7 9 19 8 21 33 21 7 6 14 29 17 7 4 18 11 41 17 46 29 52 31 52 32 57 64 63 54 49 54
31 37 41 45 48 51 52 44 42 38 25 19 16 15 14 15 6 16 12 27 25 9 5 15 25 21 21 16 19 13 13 14 19 12 21 34 17 19 30 61 66 66 54 45 43
33 38 42 46 49 53 47 43 42 31 19 17 15 13 11 3 12 12 13 26 23 13 17 22 27 31 12 17 17 12 10 10 8 3 9 15 4 15 19 47 52 64 60 53 35
33 36 40 43 46 52 43 41 30 19 17 17 9 8 9 5 14 6 17 23 13 18 15 19 25 18 12 7 12 12 6 17 4 17 6 8 7 16 29 34 36 59 58 52 38
33 36 39 41 44 45 41 34 15 8 13 12 12 10 7 4 17 23 17 23 20 27 22 18 10 1 6 10 9 10 6 6 14 11 20 21 7 23 9 28 25 44 41 42 31
32 36 38 39 42 34 41 27 19 5 30 24 26 37 46 15 11 29 30 32 36 28 11 18 4 16 21 15 16 14 6 2 22 35 16 3 4 14 24 5 9 18 20 38 19
30 36 38 37 39 25 30 20 28 28 30 49 38 45 43 25 14 24 32 17 15 10 2 9 15 25 15 17 18 24 11 10 18 17 16 10 14 18 21 9 9 13 24 32 21
28 33 38 35 27 20 15 17 25 25 13 39 25 40 36 19 19 25 31 38 10 7 10 12 22 9 11 26 21 12 17 19 22 33 28 33 9 9 9 18 2 16 15 19 14
28 31 35 38 13 37 4 16 25 17 5 14 10 16 28 19 12 36 31 30 8 13 6 13 32 24 26 21 9 8 8 36 43 15 12 16 5 7 9 6 4 17 17 6 8
29 31 31 34 39 31 24 33 26 5 9 3 9 7 27 25 7 18 40 33 12 15 8 17 23 23 14 12 6 11 2 11 35 19 15 8 10 3 4 8 6 5 7 5 21
29 32 34 31 34 22 34 33 10 7 9 6 15 11 11 14 11 7 33 42 33 14 11 28 34 11 10 5 4 1 8 16 9 8 10 10 8 6 8 10 9 20 10 24 23
31 33 35 35 25 27 24 16 6 5 11 4 9 10 10 11 10 10 9 14 12 5 3 13 7 6 13 8 15 16 13 7 10 11 6 8 15 5 5 14 21 20 33 23 22
33 38 34 35 15 12 20 5 3 12 15 26 13 11 13 9 9 4 10 11 6 8 3 4 14 8 4 11 10 4 14 10 4 9 8 15 7 6 3 30 44 42 44 57 54
32 39 39 17 13 9 5 4 9 9 16 19 5 10 8 10 7 12 17 13 15 15 10 4 11 5 11 7 14 1 3 10 14 9 10 5 4 4 13 16 20 52 57 53 45
30 38 31 14 26 14 5 9 9 7 16 11 11 2 12 10 9 6 12 13 9 21 19 12 5 5 2 12 13 11 3 11 8 8 7 8 5 11 21 20 34 42 49 52 44
23 19 4 23 30 19 5 12 13 26 27 10 5 5 5 8 16 6 7 6 8 3 11 5 7 12 10 7 6 10 7 12 11 9 10 8 3 9 20 31 32 38 51 44 41
9 6 13 36 9 5 5 8 13 23 55 15 6 7 5 11 8 5 3 2 3 2 7 5 9 8 8 12 7 11 8 10 10 3 7 8 6 16 30 45 52 46 48 45 40
8 13 25 30 5 5 10 11 25 19 13 8 8 2 7 7 1 8 7 13 9 9 7 2 6 7 14 13 14 13 7 11 11 7 2 10 9 16 41 41 44 56 46 41 36
7 5 13 21 30 7 1 12 8 25 15 15 12 12 8 11 4 7 6 12 12 10 11 14 6 13 11 12 8 12 18 12 13 9 6 4 27 12 19 30 38 47 45 39 34
9 9 9 6 11 13 9 8 10 11 8 11 7 8 3 7 2 8 8 6 11 8 8 10 6 6 6 19 19 20 24 21 15 14 10 19 19 14 20 30 41 46 42 38 34
5 7 21 21 22 10 14 14 18 14 9 12 9 16 7 7 6 13 14 5 7 10 7 7 1 5 10 16 26 20 33 35 32 26 23 26 13 17 37 46 38 36 37 37 33
5 19 10 16 11 3 4 14 13 4 14 22 14 6 12 13 27 39 20 18 19 11 5 7 7 6 4 18 15 13 4 17 12 10 29 13 15 27 17 28 36 36 36 34 30
Wind_Direction_850mb
331 334 333 337 339 338 335 336 334 333 330 328 328 324 318 324 311 290 249 214 340 35 150 145 144 147 273 264 236 242 39 296 288 74 101 117 74 50 74 86 62 73 65 82 192
326 327 329 333 335 335 336 335 333 331 329 327 326 323 319 329 308 274 188 182 165 264 179 159 165 205 307 274 235 135 122 252 226 118 90 127 109 107 98 93 84 81 81 87 90
319 323 327 329 333 336 335 333 333 330 327 327 325 319 322 326 318 336 226 249 233 240 171 164 216 291 246 234 220 177 209 126 90 96 90 85 77 101 101 74 76 100 96 94 96
316 323 327 326 333 334 334 330 330 328 326 325 323 320 324 314 282 343 285 213 214 188 191 208 51 349 265 288 224 317 230 146 141 105 99 93 97 84 92 104 103 103 91 94 87
317 324 326 328 332 332 331 328 327 327 326 320 322 325 326 295 288 310 293 203 173 192 204 239 31 358 346 295 320 218 187 125 139 108 104 93 90 95 97 115 118 116 111 104 99
317 324 328 331 330 330 329 327 325 326 324 312 319 319 299 288 308 315 216 184 184 188 228 283 350 326 298 277 126 323 28 135 108 82 100 96 91 105 98 128 121 118 113 107 105
319 325 329 331 331 332 330 328 324 323 317 307 317 313 271 253 338 334 217 178 188 183 326 333 339 332 327 335 324 299 97 76 22 90 133 93 56 84 121 119 118 116 117 110 102
318 324 329 332 334 332 332 328 323 320 309 304 313 296 255 8 280 283 209 183 193 242 290 333 335 314 296 311 318 347 84 100 259 265 175 40 166 111 166 124 108 118 120 115 111
315 322 326 331 335 333 331 327 326 328 314 304 296 298 259 232 229 221 213 190 223 270 291 318 303 290 315 64 355 7 238 113 163 3 110 83 198 218 175 125 124 125 124 125 127
314 319 323 331 337 338 338 326 330 356 348 303 246 296 252 243 250 230 214 226 272 295 290 272 277 4 24 73 234 249 5 282 127 4 64 81 134 247 35 130 144 116 141 137 143
312 316 321 331 339 345 348 20 10 285 313 279 255 278 281 285 233 213 227 233 249 275 233 255 79 232 237 203 230 249 193 271 134 150 109 81 163 296 356 348 135 120 161 145 152
308 314 319 329 338 350 356 46 18 337 298 294 267 263 261 268 291 237 211 218 232 226 332 355 260 245 214 244 247 270 166 117 78 102 82 136 35 341 340 330 62 24 188 154 149
304 312 318 326 334 337 355 23 332 322 286 291 245 239 236 235 233 232 221 230 231 244 243 191 249 321 225 274 269 234 127 187 132 88 78 110 34 332 335 328 132 30 177 148 145
298 309 318 327 332 340 17 307 331 346 347 274 213 233 217 219 266 226 222 219 195 240 226 243 273 259 272 266 173 104 173 128 142 120 182 219 118 257 272 286 21 54 134 128 58
291 302 310 321 319 339 332 332 342 336 344 198 165 191 181 179 290 197 219 221 197 237 98 252 291 293 229 223 128 190 161 107 175 200 116 137 104 272 26 291 277 158 176 77 102
283 295 301 307 309 332 329 336 332 45 263 236 157 160 125 209 254 311 196 220 227 238 222 255 262 237 175 166 167 232 34 40 47 79 53 295 138 182 195 199 141 194 164 152 162
279 285 294 293 297 333 325 330 51 173 300 51 200 153 172 189 235 205 205 164 191 172 300 319 261 207 135 73 356 62 59 358 13 34 153 325 50 279 25 150 150 161 168 169 120
280 283 282 272 302 327 335 27 161 297 292 317 166 155 177 205 244 250 175 212 192 166 316 247 328 179 177 151 174 20 131 146 188 161 165 24 48 346 49 133 142 160 110 114 109
287 286 283 254 249 253 339 52 214 234 354 316 2 137 234 230 195 177 200 204 218 165 188 349 283 86 108 124 122 272 77 174 105 53 80 95 12 37 111 129 145 110 108 108 100
303 302 278 231 187 196 85 240 257 290 323 335 48 195 193 240 159 185 188 217 215 191 166 200 5 22 189 48 28 89 192 44 11 111 112 121 125 156 176 147 102 113 113 112 110
308 308 162 177 170 176 184 242 284 292 321 341 314 304 276 260 194 208 207 326 147 208 93 73 91 311 39 18 161 12 31 60 108 116 140 138 72 188 137 118 118 120 129 125 114
291 297 171 163 149 179 197 224 298 299 305 266 259 261 234 289 181 147 77 3 66 118 85 332 129 69 40 336 92 98 117 110 109 310 69 107 43 107 119 129 129 130 122 120 116
265 271 193 219 178 241 276 285 284 284 275 318 305 223 271 261 152 130 111 10 73 77 135 47 2 69 346 354 6 52 14 102 110 88 81 116 150 130 120 121 126 128 124 116 108
274 307 246 217 245 203 88 269 259 297 269 255 263 302 343 347 2 124 111 33 42 72 103 100 87 135 169 214 127 75 58 52 99 90 111 64 133 148 122 120 132 125 119 113 105
228 255 346 289 267 234 173 292 312 319 292 280 298 219 22 324 11 123 95 116 25 31 64 93 82 68 17 110 101 108 89 76 83 149 118 169 133 164 146 134 130 124 120 111 108
248 358 341 296 282 229 179 218 230 259 255 312 320 312 302 210 187 230 137 133 161 9 60 23 164 63 56 98 95 92 97 90 96 99 91 119 89 132 124 125 122 120 117 115 114
224 285 284 278 297 286 239 222 231 205 297 238 283 317 321 283 228 204 167 153 147 127 94 79 105 78 131 121 86 44 357 97 103 100 135 153 162 147 121 121 127 129 124 119 115